Tupelo, MS

3:49 AM CDT on June 24, 2017 (GMT -0500)
Tupelo Regional

Weather History for KTUP - August, 2013

Change the Weather History Date:

Thursday, August 22, 2013

  Actual Average Record
Temperature  
Mean Temperature 83 °F 80 °F  
Max Temperature 94 °F 91 °F 102 °F (2007)
Min Temperature 71 °F 70 °F 53 °F (1973)
Degree Days  
Heating Degree Days 0 0  
Month to date heating degree days 0 0  
Since 1 June heating degree days 0 0  
Since 1 July heating degree days 0 0  
Cooling Degree Days 18 16  
Month to date cooling degree days 325 356  
Year to date cooling degree days 1448 1538  
Since 1 June cooling degree days 1202 1261  
Growing Degree Days 32 (Base 50)    
Moisture  
Dew Point 71 °F    
Average Humidity 69    
Maximum Humidity 93    
Minimum Humidity 44    
Precipitation  
Precipitation 0.00 in 0.10 in 0.94 in (1984)
Month to date precipitation 3.86 2.61  
Year to date precipitation 37.27 35.63  
Snow  
Snow 0.00 in 0.00 in - ()
Month to date snowfall 0.0 0.0  
Since 1 June snowfall 0.0 0.0  
Since 1 July snowfall 0.0 0.0  
Snow Depth 0.00 in    
Sea Level Pressure  
Sea Level Pressure 30.07 in    
Wind  
Wind Speed 2 mph (ESE)    
Max Wind Speed 16 mph    
Max Gust Speed 20 mph    
Visibility 10 miles    
Events Thunderstorm    
T = Trace of Precipitation, MM = Missing Value Source: NWS Daily Summary

Daily Weather History Graph

Daily Weather History Graph

Search for Another Location

Airport or City:

Trip Planner

Search our weather history database for the weather conditions in past years. The results will help you decide how hot, cold, wet, or windy it might be!

Date:

Astronomy

Aug. 22, 2013 Rise Set
Actual Time 6:21 AM CDT 7:33 PM CDT
Civil Twilight 5:55 AM CDT 7:59 PM CDT
Nautical Twilight 5:24 AM CDT 8:30 PM CDT
Astronomical Twilight 4:51 AM CDT 9:02 PM CDT
Moon 8:26 PM CDT (8/22) 8:02 AM CDT (8/22)
Length of Visible Light 14h 04m
Length of Day
13h 12m
Waning Gibbous, 96% of the Moon is Illuminated
Aug 22
Waning Gibbous
Aug 28
Last Quarter
Sep 5
New
Sep 12
First Quarter
Sep 19
Full

Hourly Weather History & Observations

Time (CDT) Temp. Heat Index Dew Point Humidity Pressure Visibility Wind Dir Wind Speed Gust Speed Precip Events Conditions
12:53 AM 73.9 °F - 72.0 °F 93% 30.10 in 10.0 mi Calm Calm - N/A   Clear
1:53 AM 73.9 °F - 71.1 °F 91% 30.10 in 10.0 mi Calm Calm - N/A   Clear
2:53 AM 73.0 °F - 70.0 °F 90% 30.09 in 10.0 mi Calm Calm - N/A   Clear
3:53 AM 72.0 °F - 70.0 °F 93% 30.09 in 10.0 mi South 3.5 mph - N/A   Clear
4:53 AM 72.0 °F - 70.0 °F 93% 30.10 in 10.0 mi Calm Calm - N/A   Clear
5:53 AM 72.0 °F - 70.0 °F 93% 30.12 in 10.0 mi Calm Calm - N/A   Scattered Clouds
6:53 AM 72.0 °F - 70.0 °F 93% 30.13 in 10.0 mi Calm Calm - N/A   Partly Cloudy
7:53 AM 75.9 °F - 71.1 °F 85% 30.13 in 10.0 mi Calm Calm - N/A   Clear
8:53 AM 80.1 °F 83.8 °F 72.0 °F 76% 30.12 in 10.0 mi Calm Calm - N/A   Clear
9:53 AM 82.9 °F 88.8 °F 73.0 °F 72% 30.12 in 10.0 mi Calm Calm - N/A   Clear
10:53 AM 86.0 °F 93.0 °F 73.0 °F 65% 30.12 in 10.0 mi Calm Calm - N/A   Mostly Cloudy
11:24 AM 84.2 °F 90.9 °F 73.4 °F 70% 30.13 in 10.0 mi Calm Calm - N/A   Scattered Clouds
11:53 AM 87.1 °F 92.0 °F 70.0 °F 57% 30.11 in 10.0 mi Calm Calm - N/A   Mostly Cloudy
12:00 PM 87.8 °F 93.8 °F 71.6 °F 58% 30.12 in 10.0 mi Variable 5.8 mph - N/A   Partly Cloudy
12:53 PM 87.1 °F 92.8 °F 71.1 °F 59% 30.09 in 10.0 mi Calm Calm - N/A   Clear
1:53 PM 90.0 °F 95.4 °F 70.0 °F 52% 30.06 in 10.0 mi Variable 4.6 mph - N/A   Scattered Clouds
2:53 PM 91.0 °F 94.3 °F 66.9 °F 45% 30.04 in 10.0 mi South 3.5 mph - N/A   Clear
3:53 PM 91.9 °F 95.9 °F 68.0 °F 45% 30.02 in 10.0 mi Calm Calm - N/A   Mostly Cloudy
4:53 PM 91.9 °F 95.9 °F 68.0 °F 45% 30.00 in 10.0 mi SE 4.6 mph - N/A   Scattered Clouds
5:53 PM 89.1 °F 95.0 °F 71.1 °F 55% 30.00 in 10.0 mi ENE 3.5 mph - N/A   Clear
6:32 PM 89.6 °F 96.2 °F 71.6 °F 55% 30.01 in 10.0 mi East 13.8 mph 17.3 mph N/A Thunderstorm Thunderstorm
6:48 PM 84.2 °F 88.4 °F 69.8 °F 62% 30.01 in 10.0 mi East 6.9 mph 19.6 mph N/A   Partly Cloudy
6:53 PM 84.0 °F 88.4 °F 70.0 °F 63% 30.00 in 10.0 mi ESE 5.8 mph - N/A   Partly Cloudy
7:53 PM 82.9 °F 88.8 °F 73.0 °F 72% 30.01 in 10.0 mi SE 4.6 mph - N/A   Partly Cloudy
8:35 PM 82.4 °F 88.2 °F 73.4 °F 74% 30.05 in 10.0 mi East 5.8 mph - N/A Thunderstorm Thunderstorm
8:50 PM 80.6 °F 85.4 °F 73.4 °F 79% 30.05 in 10.0 mi ESE 5.8 mph - N/A Thunderstorm Thunderstorm
8:53 PM 80.1 °F 84.2 °F 73.0 °F 79% 30.04 in 10.0 mi SE 3.5 mph - N/A Thunderstorm Thunderstorm
9:53 PM 78.1 °F - 71.1 °F 79% 30.06 in 10.0 mi NNE 9.2 mph 19.6 mph N/A Thunderstorm Thunderstorm
10:06 PM 78.8 °F - 71.6 °F 78% 30.08 in 10.0 mi NE 5.8 mph - N/A   Scattered Clouds
10:53 PM 77.0 °F - 72.0 °F 84% 30.05 in 10.0 mi Calm Calm - N/A   Scattered Clouds
11:53 PM 77.0 °F - 72.0 °F 84% 30.04 in 10.0 mi Calm Calm - N/A   Clear